Main page
METAR-TAF:

METAR-TAF

Airports :

Livingston County Spencer J. Hardy Airport

Howell, Michigan, United States

latitude: 42-37-46N, longitude: 083-59-03W, elevation: 293 m

Current weather observation

The report was made 30 minutes ago, at 19:35 UTC
Wind 6 kt from the North/Northwest
Temperature 28°C
Humidity 74%
Pressure 1025 hPa
Visibility: 16.1 km
Scattered clouds at a height of 9000 ft
Scattered clouds at a height of 11000 ft

METAR: KOZW 201935Z AUTO 34006KT 10SM SCT090 SCT110 28/23 A3027 RMK AO2 T02840225

Time: 16:05 (20:05 UTC)


TAF: missing

Weather observations and forecasts of more than 4000 airports (METAR and TAF reports).

The available stations are represented by yellow and red dots on the map.

Hover mouse over dot to see the name of the station.

Then click to see weather observations and forecasts.

To change the map : click on the green buttons with a black cross to zoom in, on the green button with a dash to zoom out, or on the green arrows for adjacent maps.


METAR-TAF: